When you browse on this site, cookies collect data to enhance your experience and personalize the content and advertising you see.
Visit our Privacy Policy to learn more. By continuing to use the site, you agree to this use of cookies and data.
  • In Hungary
  • List of Countries
  • For 7 days
  • Water Temperature
  • Weather Map
  • News
  • Weather Widgets
  • user-avatar
    Login

    Hourly Weather Santiago del Estero

    Today, 23 February, Sunday

    Time Temperature Precipitation Wind Pressure Humidity
    00:00 +19°C° 0 mm 2 mps 747 mmHg 45%
    01:00 +19°C° 0 mm 2 mps 746 mmHg 46%
    02:00 +18°C° 0 mm 2 mps 746 mmHg 48%
    03:00 +18°C° 0 mm 2 mps 746 mmHg 50%
    04:00 +17°C° 0 mm 2 mps 745 mmHg 52%
    05:00 +17°C° 0 mm 2 mps 745 mmHg 53%
    06:00 +18°C° 0 mm 2 mps 745 mmHg 51%
    07:00 +19°C° 0 mm 3 mps 745 mmHg 49%
    08:00 +21°C° 0 mm 3 mps 746 mmHg 47%
    09:00 +24°C° 0 mm 3 mps 745 mmHg 42%
    10:00 +26°C° 0 mm 4 mps 745 mmHg 38%
    11:00 +28°C° 0 mm 4 mps 745 mmHg 33%
    12:00 +29°C° 0 mm 4 mps 744 mmHg 32%
    13:00 +30°C° 0 mm 4 mps 743 mmHg 31%
    14:00 +32°C° 0 mm 4 mps 743 mmHg 30%
    15:00 +32°C° 0 mm 4 mps 742 mmHg 30%
    16:00 +32°C° 0 mm 4 mps 741 mmHg 31%
    17:00 +33°C° 0 mm 4 mps 740 mmHg 31%
    18:00 +29°C° 0 mm 4 mps 740 mmHg 35%
    19:00 +27°C° 0 mm 3 mps 740 mmHg 40%
    20:00 +25°C° 0 mm 3 mps 740 mmHg 44%
    21:00 +24°C° 0 mm 3 mps 740 mmHg 45%
    22:00 +22°C° 0 mm 3 mps 741 mmHg 45%
    23:00 +22°C° 0 mm 3 mps 741 mmHg 46%

    Tomorrow, 24 February, Monday

    Time Temperature Precipitation Wind Pressure Humidity
    00:00 +21°C° 0 mm 3 mps 740 mmHg 48%
    01:00 +20°C° 0 mm 3 mps 740 mmHg 49%
    02:00 +20°C° 0 mm 3 mps 739 mmHg 51%
    03:00 +19°C° 0 mm 3 mps 739 mmHg 52%
    04:00 +19°C° 0 mm 3 mps 739 mmHg 53%
    05:00 +19°C° 0 mm 3 mps 738 mmHg 55%
    06:00 +20°C° 0 mm 3 mps 738 mmHg 52%
    07:00 +21°C° 0 mm 4 mps 739 mmHg 50%
    08:00 +22°C° 0 mm 4 mps 739 mmHg 48%
    09:00 +26°C° 0 mm 5 mps 739 mmHg 43%
    10:00 +29°C° 0 mm 5 mps 738 mmHg 38%
    11:00 +33°C° 0 mm 6 mps 738 mmHg 33%
    12:00 +34°C° 0 mm 6 mps 737 mmHg 31%
    13:00 +35°C° 0 mm 6 mps 736 mmHg 29%
    14:00 +37°C° 0 mm 5 mps 735 mmHg 28%
    15:00 +37°C° 0 mm 5 mps 735 mmHg 28%
    16:00 +37°C° 0 mm 5 mps 734 mmHg 28%
    17:00 +37°C° 0 mm 4 mps 734 mmHg 28%
    18:00 +34°C° 0 mm 4 mps 734 mmHg 33%
    19:00 +31°C° 0 mm 3 mps 734 mmHg 38%
    20:00 +28°C° 0 mm 2 mps 734 mmHg 44%
    21:00 +28°C° 0 mm 2 mps 735 mmHg 46%
    22:00 +27°C° 0 mm 2 mps 735 mmHg 47%
    23:00 +26°C° 0 mm 2 mps 736 mmHg 49%

    Day after tomorrow, 25 February, Tuesday

    Time Temperature Precipitation Wind Pressure Humidity
    00:00 +25°C° 0 mm 2 mps 736 mmHg 50%
    01:00 +25°C° 0 mm 2 mps 736 mmHg 51%
    02:00 +24°C° 0 mm 3 mps 735 mmHg 52%
    03:00 +24°C° 0 mm 2 mps 736 mmHg 55%
    04:00 +23°C° 0 mm 2 mps 736 mmHg 57%
    05:00 +21°C° 0 mm 2 mps 737 mmHg 59%
    06:00 +24°C° 0 mm 2 mps 738 mmHg 56%
    07:00 +25°C° 0 mm 3 mps 738 mmHg 53%
    08:00 +26°C° 0 mm 3 mps 739 mmHg 50%
    09:00 +28°C° 0 mm 4 mps 740 mmHg 44%
    10:00 +30°C° 0 mm 5 mps 740 mmHg 39%
    11:00 +32°C° 0 mm 6 mps 740 mmHg 33%
    12:00 +33°C° 0 mm 6 mps 740 mmHg 31%
    13:00 +34°C° 0 mm 6 mps 740 mmHg 29%
    14:00 +35°C° 0 mm 6 mps 740 mmHg 27%
    15:00 +35°C° 0 mm 6 mps 740 mmHg 27%
    16:00 +35°C° 0 mm 6 mps 740 mmHg 28%
    17:00 +35°C° 0 mm 6 mps 739 mmHg 28%
    18:00 +33°C° 0 mm 6 mps 740 mmHg 33%
    19:00 +30°C° 0 mm 5 mps 741 mmHg 38%
    20:00 +28°C° 0 mm 4 mps 741 mmHg 43%
    21:00 +27°C° 0 mm 3 mps 742 mmHg 48%
    22:00 +26°C° 0 mm 3 mps 742 mmHg 52%
    23:00 +25°C° 0 mm 2 mps 743 mmHg 56%

    26 February, Wednesday

    Time Temperature Precipitation Wind Pressure Humidity
    00:00 +24°C° 0 mm 2 mps 743 mmHg 59%
    01:00 +23°C° 0 mm 1 mps 743 mmHg 61%
    02:00 +22°C° 0 mm 1 mps 742 mmHg 64%
    03:00 +22°C° 0 mm 1 mps 743 mmHg 64%
    04:00 +22°C° 0 mm 1 mps 743 mmHg 65%
    05:00 +22°C° 0 mm 1 mps 743 mmHg 65%
    06:00 +23°C° 0 mm 1 mps 743 mmHg 60%
    07:00 +25°C° 0 mm 1 mps 744 mmHg 55%
    08:00 +27°C° 0 mm 1 mps 744 mmHg 50%
    09:00 +29°C° 0 mm 2 mps 744 mmHg 44%
    10:00 +31°C° 0 mm 2 mps 744 mmHg 38%
    11:00 +34°C° 0 mm 3 mps 744 mmHg 32%
    12:00 +35°C° 0 mm 3 mps 744 mmHg 29%
    13:00 +36°C° 0 mm 3 mps 743 mmHg 26%
    14:00 +37°C° 0 mm 3 mps 742 mmHg 23%
    15:00 +37°C° 0 mm 3 mps 742 mmHg 22%
    16:00 +37°C° 0 mm 4 mps 741 mmHg 21%
    17:00 +36°C° 0 mm 4 mps 741 mmHg 19%
    18:00 +34°C° 0 mm 3 mps 741 mmHg 21%
    19:00 +30°C° 0 mm 3 mps 741 mmHg 24%
    20:00 +27°C° 0 mm 3 mps 742 mmHg 26%
    21:00 +26°C° 0 mm 3 mps 742 mmHg 28%
    22:00 +25°C° 0 mm 3 mps 743 mmHg 29%
    23:00 +25°C° 0 mm 3 mps 743 mmHg 31%

    27 February, Thursday

    Time Temperature Precipitation Wind Pressure Humidity
    00:00 +24°C° 0 mm 3 mps 743 mmHg 33%
    01:00 +23°C° 0 mm 2 mps 743 mmHg 34%
    02:00 +21°C° 0 mm 2 mps 742 mmHg 36%
    03:00 +21°C° 0 mm 2 mps 742 mmHg 37%
    04:00 +22°C° 0 mm 1 mps 742 mmHg 38%
    05:00 +22°C° 0 mm 1 mps 742 mmHg 39%
    06:00 +23°C° 0 mm 1 mps 743 mmHg 37%
    07:00 +24°C° 0 mm 1 mps 743 mmHg 36%
    08:00 +25°C° 0 mm 2 mps 744 mmHg 34%
    09:00 +26°C° 0 mm 2 mps 743 mmHg 32%
    10:00 +27°C° 0 mm 2 mps 743 mmHg 31%
    11:00 +28°C° 0 mm 3 mps 743 mmHg 29%
    12:00 +30°C° 0 mm 3 mps 743 mmHg 27%
    13:00 +32°C° 0 mm 2 mps 742 mmHg 24%
    14:00 +35°C° 0 mm 2 mps 742 mmHg 22%
    15:00 +35°C° 0 mm 3 mps 741 mmHg 21%
    16:00 +35°C° 0 mm 3 mps 740 mmHg 21%
    17:00 +36°C° 0 mm 3 mps 739 mmHg 20%
    18:00 +33°C° 0 mm 3 mps 740 mmHg 24%
    19:00 +30°C° 0 mm 3 mps 740 mmHg 28%
    20:00 +28°C° 0 mm 3 mps 740 mmHg 32%
    21:00 +27°C° 0 mm 3 mps 740 mmHg 34%
    22:00 +26°C° 0 mm 3 mps 740 mmHg 37%
    23:00 +25°C° 0 mm 3 mps 741 mmHg 39%

    28 February, Friday

    Time Temperature Precipitation Wind Pressure Humidity
    00:00 +24°C° 0 mm 2 mps 740 mmHg 42%
    01:00 +23°C° 0 mm 2 mps 740 mmHg 45%
    02:00 +21°C° 0 mm 2 mps 740 mmHg 48%
    03:00 +22°C° 0 mm 1 mps 740 mmHg 49%
    04:00 +21°C° 0 mm 1 mps 741 mmHg 51%
    05:00 +21°C° 0 mm 1 mps 741 mmHg 53%
    06:00 +22°C° 0 mm 1 mps 741 mmHg 51%
    07:00 +23°C° 0 mm 1 mps 742 mmHg 50%
    08:00 +24°C° 0 mm 1 mps 742 mmHg 48%
    09:00 +25°C° 0 mm 2 mps 742 mmHg 46%
    10:00 +26°C° 0 mm 2 mps 742 mmHg 44%
    11:00 +27°C° 0 mm 2 mps 742 mmHg 42%
    12:00 +28°C° 0 mm 2 mps 742 mmHg 38%
    13:00 +30°C° 0 mm 3 mps 741 mmHg 35%
    14:00 +33°C° 0 mm 3 mps 741 mmHg 31%
    15:00 +33°C° 0 mm 3 mps 740 mmHg 30%
    16:00 +34°C° 0 mm 3 mps 740 mmHg 28%
    17:00 +34°C° 0 mm 3 mps 740 mmHg 27%
    18:00 +31°C° 0 mm 2 mps 740 mmHg 32%
    19:00 +28°C° 0 mm 2 mps 740 mmHg 37%
    20:00 +25°C° 0 mm 1 mps 740 mmHg 42%
    21:00 +25°C° 0 mm 1 mps 741 mmHg 43%
    22:00 +24°C° 0 mm 1 mps 742 mmHg 44%
    23:00 +24°C° 0 mm 1 mps 742 mmHg 46%
    Show more